Total_Precipitation_Accumulation
0.79 0.77 0.76 0.68 0.64 0.66 0.70 0.85 1.08 0.93 0.56 0.42 0.41 0.44 0.50 0.58 0.67 0.66 0.63 0.68 0.73 0.82 0.93 1.00 1.05 1.21 1.55 2.19 3.12 4.08 4.24 3.52 2.68 2.15 2.08 2.45 2.84 3.26
0.86 0.86 0.84 0.82 0.80 0.75 0.75 0.80 0.93 1.04 0.77 0.40 0.38 0.42 0.54 0.65 0.76 0.75 0.74 0.80 0.79 0.84 0.90 0.96 0.98 1.06 1.23 1.57 2.17 3.06 3.91 4.07 3.51 2.82 2.44 2.48 2.77 3.07
0.92 0.98 0.96 0.93 0.98 0.93 0.87 0.84 0.85 0.93 0.92 0.48 0.37 0.41 0.60 0.80 0.85 0.85 0.88 0.83 0.76 0.78 0.83 0.89 0.94 1.01 1.15 1.34 1.67 2.25 3.06 3.76 3.95 3.58 3.13 2.82 2.79 2.87
0.99 1.01 1.04 1.04 1.07 1.05 1.03 0.94 0.83 0.78 0.85 0.68 0.48 0.51 0.64 0.80 0.87 0.89 0.91 0.87 0.81 0.82 0.85 0.91 0.97 1.05 1.17 1.27 1.47 1.78 2.37 3.02 3.57 3.75 3.52 3.11 2.90 2.95
1.23 1.21 1.15 1.14 1.15 1.09 1.09 1.04 0.93 0.82 0.79 0.80 0.64 0.58 0.66 0.78 0.90 0.97 0.94 0.93 0.95 0.97 0.92 0.94 1.00 1.05 1.12 1.20 1.33 1.56 1.81 2.21 2.71 3.33 3.57 3.38 3.05 2.92
1.31 1.32 1.30 1.30 1.26 1.20 1.19 1.14 1.09 1.07 1.00 1.00 0.90 0.77 0.75 0.79 0.97 1.12 1.12 1.01 1.02 1.02 1.02 1.00 1.05 1.10 1.12 1.08 1.06 1.23 1.47 1.81 2.31 2.85 3.35 3.49 3.15 2.90
1.15 1.15 1.22 1.37 1.43 1.49 1.52 1.41 1.36 1.44 1.40 1.33 1.17 1.03 0.93 0.96 1.07 1.13 1.28 1.23 1.15 1.10 1.10 1.00 1.02 1.01 1.00 1.00 1.02 1.12 1.32 1.48 1.78 2.27 2.78 3.17 3.18 2.99
0.99 0.93 0.94 1.14 1.24 1.36 1.50 1.51 1.55 1.69 1.76 1.67 1.44 1.23 1.01 0.96 1.04 1.23 1.42 1.58 1.51 1.19 1.19 1.19 1.13 1.14 1.03 0.94 0.98 1.04 1.20 1.36 1.51 1.81 2.20 2.61 2.86 2.98
0.80 0.80 0.81 0.88 1.02 1.02 1.17 1.26 1.34 1.50 1.70 1.78 1.73 1.34 1.08 0.96 1.16 1.37 1.45 1.58 1.49 1.31 1.39 1.56 1.38 1.27 1.11 1.04 1.03 0.96 1.05 1.19 1.30 1.48 1.77 2.15 2.51 2.75
0.67 0.66 0.66 0.71 0.85 1.01 1.12 1.14 1.10 1.20 1.46 1.65 1.79 1.59 1.35 1.25 1.41 1.70 1.87 1.92 1.77 1.59 1.54 1.81 1.62 1.42 1.29 1.16 1.06 0.95 0.97 1.04 1.15 1.23 1.41 1.73 2.10 2.36
0.65 0.65 0.60 0.59 0.83 1.04 1.07 1.04 0.96 0.99 1.17 1.45 1.66 1.73 1.75 1.81 1.91 2.20 2.40 2.38 2.26 1.95 1.72 1.82 1.84 1.71 1.56 1.42 1.22 1.03 0.93 0.94 1.00 1.07 1.16 1.36 1.68 2.06
0.69 0.66 0.74 0.76 0.92 0.99 0.94 1.00 1.05 0.95 0.93 1.02 1.14 1.25 1.33 1.45 1.73 1.97 2.17 2.28 2.29 2.28 1.89 1.78 1.93 1.98 2.14 1.78 1.37 1.03 0.89 0.91 0.91 0.94 1.02 1.14 1.38 1.62
0.82 0.76 0.72 0.84 0.88 0.92 0.96 0.97 1.10 1.02 0.96 1.06 1.09 1.06 1.09 1.21 1.37 1.62 1.92 2.15 2.28 2.22 1.86 1.85 2.04 1.88 2.01 1.96 1.61 1.22 0.88 0.80 0.80 0.87 0.96 1.02 1.15 1.27
0.83 0.73 0.72 0.85 0.90 0.96 0.95 1.02 1.10 1.07 1.01 1.03 0.98 0.95 0.99 1.08 1.20 1.39 1.65 1.86 1.96 1.98 1.79 1.78 2.11 1.89 1.75 1.64 1.58 1.45 1.10 0.85 0.75 0.77 0.85 1.05 1.18 1.22
1.00 1.00 0.93 0.96 0.97 0.92 0.95 0.97 0.96 0.94 1.00 1.00 0.90 0.82 0.84 0.96 1.06 1.21 1.38 1.60 1.76 1.85 1.84 1.75 1.86 1.87 1.79 1.64 1.36 1.25 1.21 1.09 0.83 0.77 0.84 0.88 0.95 1.04
1.15 1.15 1.11 1.07 0.98 0.92 0.91 0.85 0.81 0.86 0.90 0.88 0.80 0.73 0.72 0.83 0.98 1.12 1.30 1.48 1.72 1.82 1.83 1.84 1.86 1.99 1.95 1.58 1.34 1.17 1.03 1.15 0.99 0.79 0.82 0.88 0.87 0.80
1.25 1.19 1.09 1.07 1.05 0.94 0.83 0.77 0.75 0.79 0.80 0.73 0.73 0.73 0.74 0.81 0.90 1.02 1.26 1.42 1.59 1.63 1.76 1.96 2.01 2.01 2.02 1.90 1.72 1.28 0.99 0.91 0.88 0.78 0.82 0.96 1.02 0.91
1.24 1.15 0.97 0.89 0.88 0.82 0.78 0.75 0.71 0.70 0.67 0.66 0.70 0.73 0.77 0.83 0.90 0.97 1.17 1.36 1.44 1.45 1.55 1.77 1.96 2.07 2.22 2.29 2.00 1.47 1.10 0.97 0.93 0.85 0.82 0.94 1.10 1.02
1.02 0.91 0.81 0.75 0.71 0.68 0.68 0.66 0.64 0.62 0.63 0.67 0.68 0.67 0.71 0.78 0.85 0.92 1.05 1.19 1.28 1.35 1.43 1.54 1.71 1.88 2.00 2.14 2.21 1.77 1.33 1.12 1.07 1.08 0.98 0.89 0.95 0.99
0.86 0.81 0.79 0.74 0.69 0.67 0.66 0.65 0.63 0.62 0.66 0.68 0.67 0.64 0.67 0.75 0.80 0.83 0.90 1.03 1.14 1.23 1.33 1.41 1.53 1.68 1.75 1.72 1.85 1.90 1.71 1.34 1.18 1.20 1.14 1.05 1.05 1.15
0.82 0.77 0.77 0.79 0.77 0.72 0.67 0.66 0.67 0.65 0.64 0.67 0.65 0.64 0.65 0.71 0.75 0.76 0.82 0.94 1.04 1.10 1.18 1.26 1.37 1.51 1.65 1.64 1.59 1.60 1.74 1.73 1.39 1.20 1.15 1.22 1.32 1.33
0.78 0.77 0.75 0.78 0.81 0.78 0.74 0.72 0.72 0.69 0.66 0.66 0.63 0.61 0.63 0.68 0.71 0.73 0.77 0.82 0.86 0.94 1.04 1.14 1.28 1.49 1.68 1.72 1.59 1.44 1.57 1.77 1.80 1.53 1.29 1.24 1.40 1.49
0.80 0.80 0.78 0.78 0.79 0.78 0.76 0.74 0.74 0.70 0.66 0.64 0.60 0.57 0.58 0.65 0.66 0.68 0.69 0.68 0.73 0.82 0.96 1.11 1.26 1.43 1.60 1.64 1.62 1.46 1.40 1.52 1.66 1.68 1.66 1.43 1.13 0.98